Startpagina
METAR-TAF:

METAR-TAF

Vliegvelden :

Meeker Airport

Meeker, Colorado, Verenigde Staten

breedte: 40-02-32N, lengte: 107-53-23W, hoogte: 1948 m

Actueel weer

Dit bericht is 49 minuten geleden gemaakt, om 09:53 UTC
Wind 4 kt uit het noordoosten
Temperatuur 10°C
Vochtigheid 43%
Druk 1017 hPa
Zicht: 16.1 km
Onbewolkt

METAR: KEEO 190953Z AUTO 05004KT 10SM CLR 10/M02 A3003 RMK AO2 SLP077 T01001022

Tijdstip: 04:42 (10:42 UTC)


TAF: ontbreekt

Waarnemingen en weersverwachtingen van meer dan 4000 vliegvelden (METAR en TAF).

De beschikbare stations zijn de gele en rode punten op de kaart.

Ga met uw muis naar het station om de naam te zien.

Klik dan om waarnemingen en weersverwachtingen te zien.

kaart wijzigen: klik op de groene knoppen met een zwart kruis om in te zoomen, op de groene knop met een streepje om uit te zoomen of op de groene pijlen voor aangrenzende kaarten.


METAR-TAF: